Simultaneous Nadir Overpasses (SNOs) Predictions

Prediction of SNOs between NOAA-19 and TERRA Satellite Orbit:

Table of predicted SNOs for the next 14.0 days since TLE Epoch: 8/31/2013
Index Date (NOAA-19) Time (NOAA-19) Lat,Lon (NOAA-19) SZA (NOAA-19 ) Date (TERRA) Time (TERRA) Lat,Lon (TERRA) SZA (TERRA ) Distance(km) Time Diff (sec)
1 09/01/2013 06:19:17 -70.54, -95.85 117.76 09/01/2013 06:20:25 -70.38, -93.88 117.92 75.26 68
2 09/01/2013 07:10:07 69.66, 72.76 61.37 09/01/2013 07:10:03 69.68, 72.77 61.38 1.76 4
3 09/01/2013 08:00:52 -69.00,-119.02 119.28 09/01/2013 07:59:42 -69.07,-120.41 119.22 55.54 70
4 09/03/2013 11:03:33 -70.59,-166.98 116.91 09/03/2013 11:04:40 -70.51,-164.77 116.99 82.22 67
5 09/03/2013 11:54:23 69.69, 1.66 62.20 09/03/2013 11:54:20 69.69, 1.71 62.20 1.88 3
6 09/03/2013 12:45:09 -69.11, 169.78 118.37 09/03/2013 12:43:58 -69.14, 168.61 118.35 46.62 71
7 09/05/2013 15:47:49 -70.65, 121.88 116.04 09/05/2013 15:48:56 -70.57, 124.24 116.12 87.63 67
8 09/05/2013 16:38:38 69.68, -69.37 63.00 09/05/2013 16:38:37 69.69, -69.36 63.01 1.30 1
9 09/05/2013 17:29:25 -69.17, 98.65 117.50 09/05/2013 17:28:14 -69.20, 97.61 117.48 41.28 71
10 09/07/2013 20:32:05 -70.71, 50.73 115.16 09/07/2013 20:33:12 -70.61, 53.24 115.25 93.08 67
11 09/07/2013 21:22:53 69.68,-140.41 63.82 09/07/2013 21:22:54 69.68,-140.45 63.82 1.74 1
12 09/07/2013 22:13:41 -69.23, 27.51 116.61 09/07/2013 22:12:29 -69.30, 26.67 116.56 33.89 72
13 09/10/2013 02:07:09 69.73, 148.46
